User: anonymous   Login
Location: Noordwijk
(52.2400°N, 4.4500°E)
Time: 09:24:15
(UTC+00:00)
Language:

RS-15 - Orbit

View from above orbital plane
View from above orbital plane
View from above satellite
View from above satellite

Ground track
Ground track

The orbit data is extracted from the following two-line orbital elements,

1 23439U 94085A   22330.87716903 -.00000039  00000-0  10000-3 0  9995
2 23439  64.8137 242.9049 0167240 244.9772 113.3701 11.27573153149800
Epoch (UTC): 26 November 2022 21:03:07
Eccentricity: 0.0167240
inclination: 64.8137°
perigee height: 1882 km
apogee height: 2163 km
right ascension of ascending node: 242.9049°
argument of perigee: 244.9772°
revolutions per day: 11.27573153
mean anomaly at epoch: 113.3701°
orbit number at epoch: 14980

The dashed part of the orbit path shows where the satellite is in the earth's shadow,  

DLR